Tracking 30743 objects as of 21-Jun-2025
HD Live streaming from Space Station
objects crossing your sky now

ONEWEB-0120

Track ONEWEB-0120 now!
10-day predictions
ONEWEB-0120 is classified as:


NORAD ID: 47266
Int'l Code: 2020-100J
Perigee: 1,219.3 km
Apogee: 1,222.4 km
Inclination: 87.9 °
Period: 109.7 minutes
Semi major axis: 7591 km
RCS: Unknown
Launch date: December 18, 2020
Source: United Kingdom (UK)
Launch site: VOSTOCHNY COSMODROME (VOSTO)
Your satellite tracking list
Your tracking list is empty




NASA's NSSDC Master Catalog

Two Line Element Set (TLE):
1 47266U 20100J   25171.94106077 -.00000163  00000-0 -48931-3 0  9998
2 47266  87.8882  62.5282 0002016  76.6600 283.4753 13.12441246217344
Source of the keplerian elements: AFSPC